This is the latest recevied weather packets stored in our database for station/object W4ZHA. If no packets are shown the sender has not sent any weather packets the latest 10 day(s).
| Time | Temp. | Humidity | Pressure | Rain* | Wind** | Luminosity | Snow |
|---|---|---|---|---|---|---|---|
| 1787620701 | 22.78° C | 66% | 1016.8 hPa | 0 mm | - | 0 W/m² | - |
| 1787620396 | 22.78° C | 66% | 1016.8 hPa | 0 mm | - | 0 W/m² | - |
| 1787620093 | 22.78° C | 66% | 1016.5 hPa | 0 mm | - | 0 W/m² | - |
| 1787619793 | 22.78° C | 67% | 1016.5 hPa | 0 mm | - | 0 W/m² | - |
| 1787619488 | 23.33° C | 67% | 1016.5 hPa | 0 mm | - | 0 W/m² | - |
| 1787619183 | 23.33° C | 67% | 1016.5 hPa | 0 mm | - | 0 W/m² | - |
| 1787618882 | 23.33° C | 67% | 1016.5 hPa | 0 mm | - | 0 W/m² | - |
| 1787618579 | 23.89° C | 66% | 1016.5 hPa | 0 mm | - | 0 W/m² | - |
| 1787618276 | 23.89° C | 66% | 1016.1 hPa | 0 mm | - | 0 W/m² | - |
| 1787617972 | 24.44° C | 63% | 1016.1 hPa | 0 mm | - | 0 W/m² | - |
| 1787617671 | 24.44° C | 61% | 1016.1 hPa | 0 mm | - | 0 W/m² | - |
| 1787617366 | 25° C | 61% | 1016.1 hPa | 0 mm | - | 0 W/m² | - |
| 1787617065 | 25° C | 60% | 1016.1 hPa | 0 mm | - | 0 W/m² | - |
| 1787616760 | 25° C | 58% | 1016.1 hPa | 0 mm | - | 0 W/m² | - |
| 1787616459 | 25° C | 58% | 1016.1 hPa | 0 mm | - | 2 W/m² | - |
| 1787616152 | 25.56° C | 57% | 1016.1 hPa | 0 mm | - | 5 W/m² | - |
| 1787615851 | 26.11° C | 56% | 1015.8 hPa | 0 mm | - | 9 W/m² | - |
| 1787615547 | 26.11° C | 55% | 1015.8 hPa | 0 mm | - | 13 W/m² | - |
| 1787615242 | 26.11° C | 55% | 1015.8 hPa | 0 mm | - | 17 W/m² | - |
| 1787614938 | 27.22° C | 54% | 1015.8 hPa | 0 mm | - | 19 W/m² | - |
| 1787614634 | 27.78° C | 50% | 1015.8 hPa | 0 mm | - | 22 W/m² | - |
| 1787614331 | 28.33° C | 47% | 1015.8 hPa | 0 mm | - | 24 W/m² | - |
| 1787614027 | 28.33° C | 47% | 1015.8 hPa | 0 mm | - | 26 W/m² | - |
| 1787613718 | 28.89° C | 47% | 1016.1 hPa | 0 mm | - | 29 W/m² | - |
| 1787613417 | 28.89° C | 46% | 1015.8 hPa | 0 mm | - | 31 W/m² | - |
* Rain latest hour (hover to see other rain measurements)
** Current wind speed in m/s (hover to see current wind gust speed)